Regional Weather Roundup
Issued by NWS Albany, NY

Home | Current Version | Previous Version | Graphics & Text | Print | Product List | Glossary Off
Versions: 1 2 3 4 5 6 7 8 9 10 11 12 13 14 15 16 17 18 19 20 21 22 23 24 25 26 27 28 29 30 31 32 33 34 35 36 37 38 39 40 41 42 43 44 45 46 47 48 49 50

127
ASUS41 KALY 172310
RWRALY

NEW YORK STATE HOURLY WEATHER ROUNDUP
NATIONAL WEATHER SERVICE ALBANY NY
600 PM EST TUE JAN 17 2017

NOTE: "FAIR" INDICATES FEW OR NO CLOUDS BELOW 12,000 FEET WITH NO
SIGNIFICANT WEATHER AND/OR NO OBSTRUCTIONS TO VISIBILITY.

NYZ032-033-038>043-046>054-057>066-NYZ062>081-082-084-180000-
EAST


CITY           SKY/WX    TMP DP  RH WIND       PRES   REMARKS
ALBANY         FRZ RAIN  33  30  88 SE3       30.08F FOG
GLENS FALLS    MIX PCPN  32  27  81 CALM      30.08F
POUGHKEEPSIE   LGT RAIN  33  32  96 SE5       30.09F FOG     WCI  29
NEWBURGH       RAIN      34  34 100 E8        30.08F FOG     WCI  27
MONTGOMERY     MIX PCPN  35  33  92 N8        30.06F FOG     WCI  29
WHITE PLAINS   LGT RAIN  36  33  89 E7        30.08S FOG     WCI  30
ISLIP          LGT RAIN  38  38 100 E5        30.10S FOG     WCI  34
NEW YORK CITY  LGT RAIN  41  37  86 NE12      30.09S FOG
CENTRAL PARK   LGT RAIN  39  37  92 VRB3      30.10F FOG
$$

NYZ005>009-017-018-044>046-055-056-180000-
CENTRAL


CITY           SKY/WX    TMP DP  RH WIND       PRES   REMARKS
FULTON         LGT RAIN  35  33  92 SE9G18    29.87F FOG     WCI  28
SYRACUSE       LGT RAIN  33  33 100 E14       29.89F FOG     WCI  23
ROME           CLOUDY    34  32  92 E16       29.98F WCI  24
ELMIRA         CLOUDY    40  36  86 S3        29.89S
BINGHAMTON     LGT RAIN  33  33 100 SE15G21   29.89F VSB 1   WCI  23
MONTICELLO     CLOUDY    30  30 100 CALM      30.02S
$$

NYZ026>034-041>043-087-180000-
NORTH


CITY           SKY/WX    TMP DP  RH WIND       PRES   REMARKS
WATERTOWN      CLOUDY    36  34  92 NE6       29.89F WCI  31
FORT DRUM      NOT AVBL
OGDENSBURG     DRIZZLE   32  30  92 NE7       29.97S WCI  26
MASSENA        CLOUDY    32  24  72 NE18G25   30.01F WCI  20
SARANAC LAKE   MIX PCPN  30  23  75 E7        29.92F WCI  23
PLATTSBURGH    MOCLDY    31  23  72 CALM      30.06F
$$

NYZ001>004-010>016-019>021-085-180000-
WEST


CITY           SKY/WX    TMP DP  RH WIND       PRES   REMARKS
NIAGARA FALLS  FOG       40  38  93 SW3       29.77S VSB 1/2
BUFFALO        FOG       45  44  97 SW13      29.78R VSB 3/4
DUNKIRK        CLOUDY    47  46  97 SW12G20   29.81R
JAMESTOWN      CLOUDY    46  45  93 W10G17    29.80R
WELLSVILLE     CLOUDY    44  41  89 S9        29.83R
ROCHESTER      CLOUDY    41  39  93 S3        29.79F
PENN YAN       CLOUDY    40  36  86 S9        29.84S WCI  34
$$

             KEY
       WCI = WIND CHILL INDEX
       VSB = VISIBILITY
       HX  = HEAT INDEX
$$




USA.gov is the U.S. government's official web portal to all federal, state and local government web resources and services.